Regional Weather Roundup
Issued by NWS

Home | Current Version | Previous Version | Graphics & Text | Print | Product List | Glossary On
Versions: 1 2 3 4 5 6 7 8 9 10 11 12 13 14 15 16 17 18 19 20 21 22 23 24 25 26 27 28 29 30 31 32 33 34 35 36 37 38 39 40 41 42 43 44 45 46 47 48 49 50
865
ASUS45 KBOU 200207
RWRCO

WEATHER ROUNDUP FOR COLORADO
NATIONAL WEATHER SERVICE DENVER/BOULDER CO
800 PM MDT SAT AUG 19 2017

NOTE: "FAIR" INDICATES FEW OR NO CLOUDS BELOW 12000 FEET WITH NO
SIGNIFICANT WEATHER AND/OR OBSTRUCTIONS TO VISIBILITY.

COZ001>005-013-030-031-200300-
...NORTHWEST COLORADO...

CITY           SKY/WX    TMP DP  RH WIND       PRES   REMARKS
CRAIG          FAIR      78  30  17 W13       30.13R
HAYDEN         FAIR      75  32  20 SW7       30.16R
MEEKER         FAIR      76  34  21 W7        30.15R
RABBIT EARS PA LGT RAIN  59  28  31 NW14G25   30.50R
STEAMBOAT SPGS FAIR      74  27  17 CALM      30.18R
WALDEN         FAIR      64  23  20 W7        30.29R
$$

COZ006>008-011-200300-
...WEST CENTRAL VALLEYS...

CITY           SKY/WX    TMP DP  RH WIND       PRES   REMARKS
GRAND JUNCTION FAIR      85  35  16 NW14      30.01R
MONTROSE       FAIR      81  35  19 SW6       30.09S
EAGLE          FAIR      77  34  21 SW7       30.19R
RIFLE          FAIR      80  35  19 SW5       30.08R
DELTA          FAIR      87  35  16 N3        30.04R
NUCLA          FAIR      81  28  15 NW10      30.15R
$$

COZ017>023-064>068-200300-
...SOUTHWEST COLORADO...

CITY           SKY/WX    TMP DP  RH WIND       PRES   REMARKS
DURANGO        FAIR      80  29  15 CALM      30.15R
CORTEZ         FAIR      81  29  15 W5        30.08R
PAGOSA SPRINGS FAIR      69  29  22 CALM      30.24S
TELLURIDE      FAIR      66  32  28 CALM      30.40R
WOLF CREEK PAS FAIR      55  28  35 CALM      30.64S
$$

COZ009-010-012-014-032>034-037-058>063-200300-
...CENTRAL COLORADO...

CITY           SKY/WX    TMP DP  RH WIND       PRES   REMARKS
ASPEN          FAIR      70  32  24 SW5       30.27R
BUENA VISTA    MOCLDY    69  29  22 W6        30.26R
COPPER MTN     FAIR      55  27  33 W10       30.62R
BERTHOUD PASS  FAIR      46  43  87 NW15      30.64R
COTTONWOOD PAS FAIR      66  23  19 W5        30.43R
GUNNISON       FAIR      69  37  30 NW7       30.25R
KREMMLING      FAIR      79  21  11 W16G24    30.24R
LEADVILLE      FAIR      59  30  33 N3        30.40R
MONARCH PASS   FAIR      55  27  33 W18       30.69S
SALIDA         FAIR      73  37  26 W3        30.29R
SUNLIGHT       FAIR      54  30  40 W5        30.54S
WILKERSON PASS MOCLDY    54  30  40 E8        30.57S
$$

COZ069>075-200300-
...SAN LUIS VALLEY/SANGRE DE CRISTO MOUNTAINS...

CITY           SKY/WX    TMP DP  RH WIND       PRES   REMARKS
ALAMOSA        FAIR      70  39  32 SW7       30.21R
DEL NORTE      FAIR      67  33  28 NW6       30.26S
LA VETA PASS   NOT AVBL
SAGUACHE       FAIR      70  32  24 N12       30.25R
$$

COZ035-036-038>040-200300-
...NORTHERN COLORADO FRONT RANGE...

CITY           SKY/WX    TMP DP  RH WIND       PRES   REMARKS
DENVER INTL AP LGT RAIN  80  38  22 NE16G30   30.06S
DMNS CITY PARK   N/A     81  33  18 E3G13     30.04R
AURORA         MOCLDY    80  38  22 NE20      30.07R
FRONT RANGE AP MOCLDY    79  43  27 N23G30    30.11R
ERIE MUNI ARPT FAIR      80  36  20 S6        30.06R
BOULDER MUN AP FAIR      81  39  22 S8        30.03R
CENTENNIAL     MOCLDY    81  34  18 N12       30.09R
BROOMFIELD     MOCLDY    79  39  24 SE3       30.07R
FORT COLLINS   FAIR      84  42  22 E6        30.00R
LONGMONT       FAIR      83  40  21 SW9       30.02R
$$

COZ041-046-047-076>085-087-088-200300-
...PIKES PEAK/PALMER DIVIDE AND SOUTHERN FOOTHILLS...

CITY           SKY/WX    TMP DP  RH WIND       PRES   REMARKS
COLO. SPRINGS  FAIR      74  45  35 SE14      30.14R
A. F. ACADEMY  FAIR      70  44  39 N3        30.16R
SCHRIEVER AFB  MOCLDY    72  42  33 S6        30.15R
CHEYENNE MTN   FAIR      70  42  36 SW7       30.15R
ELLICOTT       NOT AVBL
FALCON         FAIR      68  40  35 SW9G16    30.20S
FORT CARSON    MOCLDY    71  47  41 E12       30.10R
LIMON          FAIR      74  52  46 W7        30.04R
MONUMENT HILL  FAIR      66  43  42 W9        30.20R
CANON CITY     CLEAR     82  46  28 N14G22    30.03R
WALSENBURG     FAIR      77  43  29 S9        30.08S
TRINIDAD       FAIR      74  47  38 W5        30.11R
$$

COZ042>045-048>051-090-091-200300-
...NORTHEAST COLORADO...

CITY           SKY/WX    TMP DP  RH WIND       PRES   REMARKS
GREELEY ARPT   FAIR      80  52  37 CALM      29.97R
AKRON          FAIR      81  44  27 N3        29.96R
BURLINGTON     FAIR      79  54  41 S14       29.95R
WRAY           NOT AVBL
YUMA           FAIR      72  52  49 SE3       29.91S
STERLING       FAIR      81  54  39 NE6       29.90R
HOLYOKE        FAIR      79  63  57 E5        29.90R
FORT MORGAN    FAIR      81  40  23 NE6       29.95S
$$

COZ086-089-092>099-200300-
...SOUTHEAST COLORADO...

CITY           SKY/WX    TMP DP  RH WIND       PRES   REMARKS
PUEBLO         FAIR      82  46  28 E6        29.97R
LA JUNTA       FAIR      81  48  31 S14G22    29.97R
LAMAR          FAIR      80  49  33 SW16      29.91S
SPRINGFIELD      N/A     65  60  84 S5        30.00R
$$




USA.gov is the U.S. government's official web portal to all federal, state and local government web resources and services.